{"data":{"norad_id":67695,"epoch":"2026-09-18T22:12:04.036608Z","epoch_age_seconds":205012,"freshness":"STALE","line1":"1 67695U 26025C   26261.92504672  .00028122  00000+0  86968-3 0  9994","line2":"2 67695  97.2844  11.8343 0001091 109.0191 251.1170 15.33462563 35622","mean_motion":15.33462563,"eccentricity":0.0001091,"inclination_deg":97.2844,"raan_deg":11.8343,"arg_perigee_deg":109.0191,"mean_anomaly_deg":251.117,"bstar":0.00086968,"rev_number":3562,"period_min":93.905129133563,"perigee_km":464.74428003944,"apogee_km":466.23755965155,"semimajor_km":6843.6279198455,"source":"CELESTRAK","updated_at":"2026-09-20T09:00:43.626985Z"}}